Year,Month,Day,Hour,Minute,Value (Times are PST for temperature in C)
2017,09,26,00,00,13.00
2017,09,26,00,01,13.00
2017,09,26,00,02,13.00
2017,09,26,00,03,13.00
2017,09,26,00,04,13.00
2017,09,26,00,05,13.00
2017,09,26,00,06,12.90
2017,09,26,00,07,12.90
2017,09,26,00,08,12.90
2017,09,26,00,09,12.90
2017,09,26,00,10,12.90
2017,09,26,00,11,12.90
2017,09,26,00,12,12.90
2017,09,26,00,13,12.90
2017,09,26,00,14,12.90
2017,09,26,00,15,12.80
2017,09,26,00,16,12.80
2017,09,26,00,17,12.80
2017,09,26,00,18,12.80
2017,09,26,00,19,12.80
2017,09,26,00,20,12.80
2017,09,26,00,21,12.80
2017,09,26,00,22,12.70
2017,09,26,00,23,12.70
2017,09,26,00,24,12.70
2017,09,26,00,25,12.70
2017,09,26,00,26,12.70
2017,09,26,00,27,12.60
2017,09,26,00,28,12.60
2017,09,26,00,29,12.60
2017,09,26,00,30,12.60
2017,09,26,00,31,12.60
2017,09,26,00,32,12.60
2017,09,26,00,33,12.60
2017,09,26,00,34,12.60
2017,09,26,00,35,12.50
2017,09,26,00,36,12.50
2017,09,26,00,37,12.50
2017,09,26,00,38,12.50
2017,09,26,00,39,12.50
2017,09,26,00,40,12.50
2017,09,26,00,41,12.50
2017,09,26,00,42,12.50
2017,09,26,00,43,12.50
2017,09,26,00,44,12.40
2017,09,26,00,45,12.40
2017,09,26,00,46,12.40
2017,09,26,00,47,12.40
2017,09,26,00,48,12.40
2017,09,26,00,49,12.40
2017,09,26,00,50,12.40
2017,09,26,00,51,12.40
2017,09,26,00,52,12.30
2017,09,26,00,53,12.30
2017,09,26,00,54,12.30
2017,09,26,00,55,12.30
2017,09,26,00,56,12.30
2017,09,26,00,57,12.30
2017,09,26,00,58,12.30
2017,09,26,00,59,12.30
2017,09,26,01,00,12.30
2017,09,26,01,01,12.30
2017,09,26,01,02,12.30
2017,09,26,01,03,12.30
2017,09,26,01,04,12.30
2017,09,26,01,05,12.30
2017,09,26,01,06,12.30
2017,09,26,01,07,12.30
2017,09,26,01,08,12.30
2017,09,26,01,09,12.30
2017,09,26,01,10,12.20
2017,09,26,01,11,12.20
2017,09,26,01,12,12.20
2017,09,26,01,13,12.20
2017,09,26,01,14,12.20
2017,09,26,01,15,12.20
2017,09,26,01,16,12.20
2017,09,26,01,17,12.20
2017,09,26,01,18,12.20
2017,09,26,01,19,12.20
2017,09,26,01,20,12.20
2017,09,26,01,21,12.20
2017,09,26,01,22,12.20
2017,09,26,01,23,12.20
2017,09,26,01,24,12.10
2017,09,26,01,25,12.10
2017,09,26,01,26,12.10
2017,09,26,01,27,12.10
2017,09,26,01,28,12.10
2017,09,26,01,29,12.10
2017,09,26,01,30,12.10
2017,09,26,01,31,12.10
2017,09,26,01,32,12.10
2017,09,26,01,33,12.00
2017,09,26,01,34,12.00
2017,09,26,01,35,12.00
2017,09,26,01,36,12.00
2017,09,26,01,37,12.00
2017,09,26,01,38,12.00
2017,09,26,01,39,12.00
2017,09,26,01,40,11.90
2017,09,26,01,41,11.90
2017,09,26,01,42,11.90
2017,09,26,01,43,11.90
2017,09,26,01,44,11.90
2017,09,26,01,45,11.90
2017,09,26,01,46,11.80
2017,09,26,01,47,11.80
2017,09,26,01,48,11.80
2017,09,26,01,49,11.80
2017,09,26,01,50,11.80
2017,09,26,01,51,11.80
2017,09,26,01,52,11.80
2017,09,26,01,53,11.90
2017,09,26,01,54,11.80
2017,09,26,01,55,11.80
2017,09,26,01,56,11.80
2017,09,26,01,57,11.80
2017,09,26,01,58,11.90
2017,09,26,01,59,11.90
2017,09,26,02,00,11.90
2017,09,26,02,01,11.90
2017,09,26,02,02,11.90
2017,09,26,02,03,11.90
2017,09,26,02,04,11.90
2017,09,26,02,05,11.90
2017,09,26,02,06,11.90
2017,09,26,02,07,11.90
2017,09,26,02,08,11.90
2017,09,26,02,09,11.90
2017,09,26,02,10,11.90
2017,09,26,02,11,11.90
2017,09,26,02,12,11.90
2017,09,26,02,13,11.90
2017,09,26,02,14,11.90
2017,09,26,02,15,11.80
2017,09,26,02,16,11.80
2017,09,26,02,17,11.80
2017,09,26,02,18,11.80
2017,09,26,02,19,11.80
2017,09,26,02,20,11.80
2017,09,26,02,21,11.80
2017,09,26,02,22,11.80
2017,09,26,02,23,11.80
2017,09,26,02,24,11.80
2017,09,26,02,25,11.80
2017,09,26,02,26,11.80
2017,09,26,02,27,11.80
2017,09,26,02,28,11.70
2017,09,26,02,29,11.70
2017,09,26,02,30,11.70
2017,09,26,02,31,11.70
2017,09,26,02,32,11.70
2017,09,26,02,33,11.70
2017,09,26,02,34,11.70
2017,09,26,02,35,11.60
2017,09,26,02,36,11.60
2017,09,26,02,37,11.60
2017,09,26,02,38,11.60
2017,09,26,02,39,11.60
2017,09,26,02,40,11.60
2017,09,26,02,41,11.60
2017,09,26,02,42,11.60
2017,09,26,02,43,11.60
2017,09,26,02,44,11.60
2017,09,26,02,45,11.60
2017,09,26,02,46,11.60
2017,09,26,02,47,11.60
2017,09,26,02,48,11.60
2017,09,26,02,49,11.60
2017,09,26,02,50,11.60
2017,09,26,02,51,11.60
2017,09,26,02,52,11.50
2017,09,26,02,53,11.50
2017,09,26,02,54,11.50
2017,09,26,02,55,11.50
2017,09,26,02,56,11.50
2017,09,26,02,57,11.50
2017,09,26,02,58,11.50
2017,09,26,02,59,11.50
2017,09,26,03,00,11.50
2017,09,26,03,01,11.50
2017,09,26,03,02,11.50
2017,09,26,03,03,11.50
2017,09,26,03,04,11.50
2017,09,26,03,05,11.50
2017,09,26,03,06,11.50
2017,09,26,03,07,11.50
2017,09,26,03,08,11.50
2017,09,26,03,09,11.50
2017,09,26,03,10,11.50
2017,09,26,03,11,11.50
2017,09,26,03,12,11.50
2017,09,26,03,13,11.50
2017,09,26,03,14,11.50
2017,09,26,03,15,11.50
2017,09,26,03,16,11.50
2017,09,26,03,17,11.50
2017,09,26,03,18,11.50
2017,09,26,03,19,11.50
2017,09,26,03,20,11.60
2017,09,26,03,21,11.60
2017,09,26,03,22,11.60
2017,09,26,03,23,11.60
2017,09,26,03,24,11.60
2017,09,26,03,25,11.70
2017,09,26,03,26,11.70
2017,09,26,03,27,11.70
2017,09,26,03,28,11.70
2017,09,26,03,29,11.80
2017,09,26,03,30,11.80
2017,09,26,03,31,11.80
2017,09,26,03,32,11.80
2017,09,26,03,33,11.80
2017,09,26,03,34,11.80
2017,09,26,03,35,11.90
2017,09,26,03,36,11.90
2017,09,26,03,37,11.90
2017,09,26,03,38,12.00
2017,09,26,03,39,12.00
2017,09,26,03,40,12.00
2017,09,26,03,41,12.00
2017,09,26,03,42,12.10
2017,09,26,03,43,12.10
2017,09,26,03,44,12.10
2017,09,26,03,45,12.10
2017,09,26,03,46,12.10
2017,09,26,03,47,12.10
2017,09,26,03,48,12.10
2017,09,26,03,49,12.20
2017,09,26,03,50,12.20
2017,09,26,03,51,12.20
2017,09,26,03,52,12.30
2017,09,26,03,53,12.30
2017,09,26,03,54,12.30
2017,09,26,03,55,12.30
2017,09,26,03,56,12.30
2017,09,26,03,57,12.30
2017,09,26,03,58,12.30
2017,09,26,03,59,12.30
2017,09,26,04,00,12.30
2017,09,26,04,01,12.30
2017,09,26,04,02,12.30
2017,09,26,04,03,12.30
2017,09,26,04,04,12.30
2017,09,26,04,05,12.30
2017,09,26,04,06,12.30
2017,09,26,04,07,12.30
2017,09,26,04,08,12.30
2017,09,26,04,09,12.30
2017,09,26,04,10,12.40
2017,09,26,04,11,12.40
2017,09,26,04,12,12.40
2017,09,26,04,13,12.40
2017,09,26,04,14,12.40
2017,09,26,04,15,12.40
2017,09,26,04,16,12.40
2017,09,26,04,17,12.40
2017,09,26,04,18,12.40
2017,09,26,04,19,12.40
2017,09,26,04,20,12.40
2017,09,26,04,21,12.40
2017,09,26,04,22,12.40
2017,09,26,04,23,12.40
2017,09,26,04,24,12.40
2017,09,26,04,25,12.40
2017,09,26,04,26,12.40
2017,09,26,04,27,12.40
2017,09,26,04,28,12.40
2017,09,26,04,29,12.40
2017,09,26,04,30,12.40
2017,09,26,04,31,12.40
2017,09,26,04,32,12.40
2017,09,26,04,33,12.30
2017,09,26,04,34,12.30
2017,09,26,04,35,12.30
2017,09,26,04,36,12.30
2017,09,26,04,37,12.30
2017,09,26,04,38,12.30
2017,09,26,04,39,12.30
2017,09,26,04,40,12.30
2017,09,26,04,41,12.30
2017,09,26,04,42,12.30
2017,09,26,04,43,12.30
2017,09,26,04,44,12.30
2017,09,26,04,45,12.30
2017,09,26,04,46,12.30
2017,09,26,04,47,12.30
2017,09,26,04,48,12.30
2017,09,26,04,49,12.30
2017,09,26,04,50,12.30
2017,09,26,04,51,12.30
2017,09,26,04,52,12.30
2017,09,26,04,53,12.30
2017,09,26,04,54,12.30
2017,09,26,04,55,12.30
2017,09,26,04,56,12.30
2017,09,26,04,57,12.30
2017,09,26,04,58,12.30
2017,09,26,04,59,12.30
2017,09,26,05,00,12.30
2017,09,26,05,01,12.30
2017,09,26,05,02,12.30
2017,09,26,05,03,12.30
2017,09,26,05,04,12.30
2017,09,26,05,05,12.30
2017,09,26,05,06,12.30
2017,09,26,05,07,12.30
2017,09,26,05,08,12.30
2017,09,26,05,09,12.30
2017,09,26,05,10,12.30
2017,09,26,05,11,12.30
2017,09,26,05,12,12.30
2017,09,26,05,13,12.30
2017,09,26,05,14,12.30
2017,09,26,05,15,12.30
2017,09,26,05,16,12.30
2017,09,26,05,17,12.30
2017,09,26,05,18,12.30
2017,09,26,05,19,12.30
2017,09,26,05,20,12.30
2017,09,26,05,21,12.20
2017,09,26,05,22,12.30
2017,09,26,05,23,12.20
2017,09,26,05,24,12.30
2017,09,26,05,25,12.20
2017,09,26,05,26,12.20
2017,09,26,05,27,12.20
2017,09,26,05,28,12.20
2017,09,26,05,29,12.20
2017,09,26,05,30,12.20
2017,09,26,05,31,12.20
2017,09,26,05,32,12.20
2017,09,26,05,33,12.20
2017,09,26,05,34,12.20
2017,09,26,05,35,12.20
2017,09,26,05,36,12.20
2017,09,26,05,37,12.20
2017,09,26,05,38,12.20
2017,09,26,05,39,12.20
2017,09,26,05,40,12.20
2017,09,26,05,41,12.20
2017,09,26,05,42,12.20
2017,09,26,05,43,12.20
2017,09,26,05,44,12.20
2017,09,26,05,45,12.20
2017,09,26,05,46,12.20
2017,09,26,05,47,12.20
2017,09,26,05,48,12.20
2017,09,26,05,49,12.20
2017,09,26,05,50,12.20
2017,09,26,05,51,12.20
2017,09,26,05,52,12.20
2017,09,26,05,53,12.20
2017,09,26,05,54,12.20
2017,09,26,05,55,12.20
2017,09,26,05,56,12.20
2017,09,26,05,57,12.20
2017,09,26,05,58,12.20
2017,09,26,05,59,12.20
2017,09,26,06,00,12.20
2017,09,26,06,01,12.20
2017,09,26,06,02,12.20
2017,09,26,06,03,12.20
2017,09,26,06,04,12.20
2017,09,26,06,05,12.30
2017,09,26,06,06,12.30
2017,09,26,06,07,12.30
2017,09,26,06,08,12.30
2017,09,26,06,09,12.30
2017,09,26,06,10,12.40
2017,09,26,06,11,12.40
2017,09,26,06,12,12.40
2017,09,26,06,13,12.40
2017,09,26,06,14,12.40
2017,09,26,06,15,12.40
2017,09,26,06,16,12.40
2017,09,26,06,17,12.40
2017,09,26,06,18,12.40
2017,09,26,06,19,12.40
2017,09,26,06,20,12.40
2017,09,26,06,21,12.50
2017,09,26,06,22,12.50
2017,09,26,06,23,12.50
2017,09,26,06,24,12.50
2017,09,26,06,25,12.50
2017,09,26,06,26,12.60
2017,09,26,06,27,12.60
2017,09,26,06,28,12.60
2017,09,26,06,29,12.60
2017,09,26,06,30,12.60
2017,09,26,06,31,12.60
2017,09,26,06,32,12.70
2017,09,26,06,33,12.70
2017,09,26,06,34,12.70
2017,09,26,06,35,12.70
2017,09,26,06,36,12.70
2017,09,26,06,37,12.70
2017,09,26,06,38,12.70
2017,09,26,06,39,12.70
2017,09,26,06,40,12.80
2017,09,26,06,41,12.80
2017,09,26,06,42,12.80
2017,09,26,06,43,12.80
2017,09,26,06,44,12.80
2017,09,26,06,45,12.80
2017,09,26,06,46,12.80
2017,09,26,06,47,12.80
2017,09,26,06,48,12.80
2017,09,26,06,49,12.80
2017,09,26,06,50,12.80
2017,09,26,06,51,12.80
2017,09,26,06,52,12.80
2017,09,26,06,53,12.80
2017,09,26,06,54,12.80
2017,09,26,06,55,12.80
2017,09,26,06,56,12.90
2017,09,26,06,57,12.90
2017,09,26,06,58,12.90
2017,09,26,06,59,12.90
2017,09,26,07,00,12.90
2017,09,26,07,01,12.90
2017,09,26,07,02,12.90
2017,09,26,07,03,12.90
2017,09,26,07,04,12.90
2017,09,26,07,05,12.90
2017,09,26,07,06,12.90
2017,09,26,07,07,12.90
2017,09,26,07,08,12.90
2017,09,26,07,09,12.90
2017,09,26,07,10,12.90
2017,09,26,07,11,12.90
2017,09,26,07,12,13.00
2017,09,26,07,13,13.00
2017,09,26,07,14,13.00
2017,09,26,07,15,13.10
2017,09,26,07,16,13.10
2017,09,26,07,17,13.10
2017,09,26,07,18,13.10
2017,09,26,07,19,13.10
2017,09,26,07,20,13.10
2017,09,26,07,21,13.10
2017,09,26,07,22,13.20
2017,09,26,07,23,13.20
2017,09,26,07,24,13.20
2017,09,26,07,25,13.20
2017,09,26,07,26,13.20
2017,09,26,07,27,13.20
2017,09,26,07,28,13.20
2017,09,26,07,29,13.20
2017,09,26,07,30,13.20
2017,09,26,07,31,13.20
2017,09,26,07,32,13.20
2017,09,26,07,33,13.20
2017,09,26,07,34,13.30
2017,09,26,07,35,13.30
2017,09,26,07,36,13.30
2017,09,26,07,37,13.30
2017,09,26,07,38,13.30
2017,09,26,07,39,13.30
2017,09,26,07,40,13.30
2017,09,26,07,41,13.30
2017,09,26,07,42,13.30
2017,09,26,07,43,13.30
2017,09,26,07,44,13.30
2017,09,26,07,45,13.30
2017,09,26,07,46,13.30
2017,09,26,07,47,13.30
2017,09,26,07,48,13.40
2017,09,26,07,49,13.40
2017,09,26,07,50,13.40
2017,09,26,07,51,13.40
2017,09,26,07,52,13.40
2017,09,26,07,53,13.50
2017,09,26,07,54,13.50
2017,09,26,07,55,13.50
2017,09,26,07,56,13.50
2017,09,26,07,57,13.50
2017,09,26,07,58,13.50
2017,09,26,07,59,13.50
2017,09,26,08,00,13.50
2017,09,26,08,01,13.50
2017,09,26,08,02,13.60
2017,09,26,08,03,13.60
2017,09,26,08,04,13.60
2017,09,26,08,05,13.60
2017,09,26,08,06,13.70
2017,09,26,08,07,13.70
2017,09,26,08,08,13.70
2017,09,26,08,09,13.70
2017,09,26,08,10,13.70
2017,09,26,08,11,13.70
2017,09,26,08,12,13.70
2017,09,26,08,13,13.70
2017,09,26,08,14,13.70
2017,09,26,08,15,13.70
2017,09,26,08,16,13.70
2017,09,26,08,17,13.70
2017,09,26,08,18,13.80
2017,09,26,08,19,13.80
2017,09,26,08,20,13.80
2017,09,26,08,21,13.80
2017,09,26,08,22,13.80
2017,09,26,08,23,13.80
2017,09,26,08,24,13.80
2017,09,26,08,25,13.80
2017,09,26,08,26,13.80
2017,09,26,08,27,13.90
2017,09,26,08,28,13.90
2017,09,26,08,29,13.90
2017,09,26,08,30,13.90
2017,09,26,08,31,13.90
2017,09,26,08,32,13.90
2017,09,26,08,33,13.90
2017,09,26,08,34,13.90
2017,09,26,08,35,14.00
2017,09,26,08,36,14.00
2017,09,26,08,37,14.00
2017,09,26,08,38,14.00
2017,09,26,08,39,14.00
2017,09,26,08,40,14.10
2017,09,26,08,41,14.10
2017,09,26,08,42,14.10
2017,09,26,08,43,14.10
2017,09,26,08,44,14.10
2017,09,26,08,45,14.10
2017,09,26,08,46,14.10
2017,09,26,08,47,14.20
2017,09,26,08,48,14.20
2017,09,26,08,49,14.20
2017,09,26,08,50,14.20
2017,09,26,08,51,14.20
2017,09,26,08,52,14.20
2017,09,26,08,53,14.20
2017,09,26,08,54,14.20
2017,09,26,08,55,14.20
2017,09,26,08,56,14.20
2017,09,26,08,57,14.30
2017,09,26,08,58,14.30
2017,09,26,08,59,14.30
2017,09,26,09,00,14.30
2017,09,26,09,01,14.30
2017,09,26,09,02,14.30
2017,09,26,09,03,14.40
2017,09,26,09,04,14.40
2017,09,26,09,05,14.40
2017,09,26,09,06,14.40
2017,09,26,09,07,14.40
2017,09,26,09,08,14.50
2017,09,26,09,09,14.50
2017,09,26,09,10,14.60
2017,09,26,09,11,14.60
2017,09,26,09,12,14.60
2017,09,26,09,13,14.60
2017,09,26,09,14,14.60
2017,09,26,09,15,14.60
2017,09,26,09,16,14.60
2017,09,26,09,17,14.60
2017,09,26,09,18,14.60
2017,09,26,09,19,14.70
2017,09,26,09,20,14.70
2017,09,26,09,21,14.70
2017,09,26,09,22,14.70
2017,09,26,09,23,14.70
2017,09,26,09,24,14.70
2017,09,26,09,25,14.80
2017,09,26,09,26,14.80
2017,09,26,09,27,14.80
2017,09,26,09,28,14.90
2017,09,26,09,29,14.90
2017,09,26,09,30,15.00
2017,09,26,09,31,15.00
2017,09,26,09,32,15.00
2017,09,26,09,33,15.00
2017,09,26,09,34,15.00
2017,09,26,09,35,15.00
2017,09,26,09,36,15.00
2017,09,26,09,37,15.00
2017,09,26,09,38,15.00
2017,09,26,09,39,15.10
2017,09,26,09,40,15.20
2017,09,26,09,41,15.20
2017,09,26,09,42,15.20
2017,09,26,09,43,15.30
2017,09,26,09,44,15.30
2017,09,26,09,45,15.40
2017,09,26,09,46,15.40
2017,09,26,09,47,15.50
2017,09,26,09,48,15.50
2017,09,26,09,49,15.60
2017,09,26,09,50,15.60
2017,09,26,09,51,15.60
2017,09,26,09,52,15.60
2017,09,26,09,53,15.60
2017,09,26,09,54,15.60
2017,09,26,09,55,15.60
2017,09,26,09,56,15.70
2017,09,26,09,57,15.70
2017,09,26,09,58,15.70
2017,09,26,09,59,15.70
2017,09,26,10,00,15.70
2017,09,26,10,01,15.80
2017,09,26,10,02,15.80
2017,09,26,10,03,15.80
2017,09,26,10,04,15.90
2017,09,26,10,05,16.00
2017,09,26,10,06,16.00
2017,09,26,10,07,16.10
2017,09,26,10,08,16.20
2017,09,26,10,09,16.20
2017,09,26,10,10,16.30
2017,09,26,10,11,16.30
2017,09,26,10,12,16.30
2017,09,26,10,13,16.40
2017,09,26,10,14,16.40
2017,09,26,10,15,16.40
2017,09,26,10,16,16.50
2017,09,26,10,17,16.50
2017,09,26,10,18,16.60
2017,09,26,10,19,16.60
2017,09,26,10,20,16.70
2017,09,26,10,21,16.70
2017,09,26,10,22,16.80
2017,09,26,10,23,16.80
2017,09,26,10,24,16.90
2017,09,26,10,25,16.90
2017,09,26,10,26,17.00
2017,09,26,10,27,17.10
2017,09,26,10,28,17.10
2017,09,26,10,29,17.20
2017,09,26,10,30,17.20
2017,09,26,10,31,17.30
2017,09,26,10,32,17.40
2017,09,26,10,33,17.40
2017,09,26,10,34,17.50
2017,09,26,10,35,17.50
2017,09,26,10,36,17.60
2017,09,26,10,37,17.60
2017,09,26,10,38,17.60
2017,09,26,10,39,17.60
2017,09,26,10,40,17.80
2017,09,26,10,41,17.90
2017,09,26,10,42,18.00
2017,09,26,10,43,18.10
2017,09,26,10,44,18.10
2017,09,26,10,45,18.20
2017,09,26,10,46,18.20
2017,09,26,10,47,18.20
2017,09,26,10,48,18.20
2017,09,26,10,49,18.20
2017,09,26,10,50,18.30
2017,09,26,10,51,18.30
2017,09,26,10,52,18.30
2017,09,26,10,53,18.30
2017,09,26,10,54,18.30
2017,09,26,10,55,18.30
2017,09,26,10,56,18.20
2017,09,26,10,57,18.20
2017,09,26,10,58,18.30
2017,09,26,10,59,18.30
2017,09,26,11,00,18.30
2017,09,26,11,01,18.40
2017,09,26,11,02,18.40
2017,09,26,11,03,18.40
2017,09,26,11,04,18.40
2017,09,26,11,05,18.30
2017,09,26,11,06,18.30
2017,09,26,11,07,18.30
2017,09,26,11,08,18.20
2017,09,26,11,09,18.20
2017,09,26,11,10,18.10
2017,09,26,11,11,18.10
2017,09,26,11,12,18.10
2017,09,26,11,13,18.10
2017,09,26,11,14,18.10
2017,09,26,11,15,18.10
2017,09,26,11,16,18.10
2017,09,26,11,17,18.10
2017,09,26,11,18,18.10
2017,09,26,11,19,18.10
2017,09,26,11,20,18.20
2017,09,26,11,21,18.20
2017,09,26,11,22,18.20
2017,09,26,11,23,18.20
2017,09,26,11,24,18.20
2017,09,26,11,25,18.20
2017,09,26,11,26,18.30
2017,09,26,11,27,18.30
2017,09,26,11,28,18.30
2017,09,26,11,29,18.20
2017,09,26,11,30,18.20
2017,09,26,11,31,18.20
2017,09,26,11,32,18.20
2017,09,26,11,33,18.20
2017,09,26,11,34,18.20
2017,09,26,11,35,18.20
2017,09,26,11,36,18.20
2017,09,26,11,37,18.20
2017,09,26,11,38,18.20
2017,09,26,11,39,18.20
2017,09,26,11,40,18.20
2017,09,26,11,41,18.20
2017,09,26,11,42,18.30
2017,09,26,11,43,18.30
2017,09,26,11,44,18.40
2017,09,26,11,45,18.50
2017,09,26,11,46,18.50
2017,09,26,11,47,18.60
2017,09,26,11,48,18.70
2017,09,26,11,49,18.70
2017,09,26,11,50,18.70
2017,09,26,11,51,18.80
2017,09,26,11,52,18.80
2017,09,26,11,53,18.80
2017,09,26,11,54,18.90
2017,09,26,11,55,18.90
2017,09,26,11,56,18.90
2017,09,26,11,57,19.00
2017,09,26,11,58,19.00
2017,09,26,11,59,19.10
2017,09,26,12,00,19.10
2017,09,26,12,01,19.00
2017,09,26,12,02,18.90
2017,09,26,12,03,18.90
2017,09,26,12,04,18.80
2017,09,26,12,05,18.80
2017,09,26,12,06,18.80
2017,09,26,12,07,18.80
2017,09,26,12,08,18.90
2017,09,26,12,09,18.90
2017,09,26,12,10,19.00
2017,09,26,12,11,19.10
2017,09,26,12,12,19.10
2017,09,26,12,13,19.20
2017,09,26,12,14,19.20
2017,09,26,12,15,19.20
2017,09,26,12,16,19.20
2017,09,26,12,17,19.20
2017,09,26,12,18,19.20
2017,09,26,12,19,19.20
2017,09,26,12,20,19.20
2017,09,26,12,21,19.20
2017,09,26,12,22,19.20
2017,09,26,12,23,19.30
2017,09,26,12,24,19.30
2017,09,26,12,25,19.40
2017,09,26,12,26,19.50
2017,09,26,12,27,19.60
2017,09,26,12,28,19.60
2017,09,26,12,29,19.70
2017,09,26,12,30,19.80
2017,09,26,12,31,19.90
2017,09,26,12,32,19.90
2017,09,26,12,33,19.90
2017,09,26,12,34,20.00
2017,09,26,12,35,20.00
2017,09,26,12,36,20.00
2017,09,26,12,37,20.00
2017,09,26,12,38,19.90
2017,09,26,12,39,19.80
2017,09,26,12,40,19.80
2017,09,26,12,41,19.70
2017,09,26,12,42,19.80
2017,09,26,12,43,19.90
2017,09,26,12,44,20.00
2017,09,26,12,45,20.10
2017,09,26,12,46,20.10
2017,09,26,12,47,20.20
2017,09,26,12,48,20.20
2017,09,26,12,49,20.30
2017,09,26,12,50,20.30
2017,09,26,12,51,20.30
2017,09,26,12,52,20.30
2017,09,26,12,53,20.30
2017,09,26,12,54,20.30
2017,09,26,12,55,20.20
2017,09,26,12,56,20.20
2017,09,26,12,57,20.20
2017,09,26,12,58,20.10
2017,09,26,12,59,20.10
2017,09,26,13,00,20.10
2017,09,26,13,01,20.00
2017,09,26,13,02,20.00
2017,09,26,13,03,20.00
2017,09,26,13,04,20.00
2017,09,26,13,05,20.00
2017,09,26,13,06,20.00
2017,09,26,13,07,19.90
2017,09,26,13,08,19.90
2017,09,26,13,09,20.00
2017,09,26,13,10,20.00
2017,09,26,13,11,20.10
2017,09,26,13,12,20.20
2017,09,26,13,13,20.30
2017,09,26,13,14,20.40
2017,09,26,13,15,20.50
2017,09,26,13,16,20.70
2017,09,26,13,17,20.80
2017,09,26,13,18,20.80
2017,09,26,13,19,20.90
2017,09,26,13,20,21.00
2017,09,26,13,21,21.00
2017,09,26,13,22,21.10
2017,09,26,13,23,21.10
2017,09,26,13,24,21.20
2017,09,26,13,25,21.20
2017,09,26,13,26,21.30
2017,09,26,13,27,21.30
2017,09,26,13,28,21.30
2017,09,26,13,29,21.30
2017,09,26,13,30,21.30
2017,09,26,13,31,21.30
2017,09,26,13,32,21.30
2017,09,26,13,33,21.30
2017,09,26,13,34,21.20
2017,09,26,13,35,21.20
2017,09,26,13,36,21.10
2017,09,26,13,37,21.10
2017,09,26,13,38,21.00
2017,09,26,13,39,21.00
2017,09,26,13,40,21.00
2017,09,26,13,41,21.00
2017,09,26,13,42,21.00
2017,09,26,13,43,21.00
2017,09,26,13,44,21.00
2017,09,26,13,45,20.90
2017,09,26,13,46,20.90
2017,09,26,13,47,20.80
2017,09,26,13,48,20.80
2017,09,26,13,49,20.90
2017,09,26,13,50,20.90
2017,09,26,13,51,20.90
2017,09,26,13,52,21.00
2017,09,26,13,53,21.00
2017,09,26,13,54,21.00
2017,09,26,13,55,21.00
2017,09,26,13,56,20.90
2017,09,26,13,57,20.80
2017,09,26,13,58,20.80
2017,09,26,13,59,20.80
2017,09,26,14,00,20.80
2017,09,26,14,01,20.70
2017,09,26,14,02,20.70
2017,09,26,14,03,20.70
2017,09,26,14,04,20.80
2017,09,26,14,05,20.80
2017,09,26,14,06,20.80
2017,09,26,14,07,20.80
2017,09,26,14,08,20.90
2017,09,26,14,09,20.90
2017,09,26,14,10,21.00
2017,09,26,14,11,21.00
2017,09,26,14,12,21.00
2017,09,26,14,13,20.90
2017,09,26,14,14,20.90
2017,09,26,14,15,20.90
2017,09,26,14,16,20.80
2017,09,26,14,17,20.80
2017,09,26,14,18,20.80
2017,09,26,14,19,20.90
2017,09,26,14,20,20.90
2017,09,26,14,21,20.90
2017,09,26,14,22,20.90
2017,09,26,14,23,20.90
2017,09,26,14,24,20.90
2017,09,26,14,25,20.90
2017,09,26,14,26,20.90
2017,09,26,14,27,20.90
2017,09,26,14,28,21.00
2017,09,26,14,29,21.00
2017,09,26,14,30,21.00
2017,09,26,14,31,21.10
2017,09,26,14,32,21.10
2017,09,26,14,33,21.00
2017,09,26,14,34,21.00
2017,09,26,14,35,20.90
2017,09,26,14,36,20.90
2017,09,26,14,37,20.90
2017,09,26,14,38,20.90
2017,09,26,14,39,20.90
2017,09,26,14,40,20.90
2017,09,26,14,41,21.00
2017,09,26,14,42,21.00
2017,09,26,14,43,20.90
2017,09,26,14,44,20.90
2017,09,26,14,45,21.00
2017,09,26,14,46,21.00
2017,09,26,14,47,21.10
2017,09,26,14,48,21.20
2017,09,26,14,49,21.20
2017,09,26,14,50,21.30
2017,09,26,14,51,21.40
2017,09,26,14,52,21.50
2017,09,26,14,53,21.60
2017,09,26,14,54,21.70
2017,09,26,14,55,21.80
2017,09,26,14,56,21.90
2017,09,26,14,57,21.90
2017,09,26,14,58,22.00
2017,09,26,14,59,22.10
2017,09,26,15,00,22.10
2017,09,26,15,01,22.20
2017,09,26,15,02,22.20
2017,09,26,15,03,22.20
2017,09,26,15,04,22.30
2017,09,26,15,05,22.30
2017,09,26,15,06,22.30
2017,09,26,15,07,22.20
2017,09,26,15,08,22.20
2017,09,26,15,09,22.20
2017,09,26,15,10,22.20
2017,09,26,15,11,22.20
2017,09,26,15,12,22.20
2017,09,26,15,13,22.20
2017,09,26,15,14,22.20
2017,09,26,15,15,22.20
2017,09,26,15,16,22.20
2017,09,26,15,17,22.20
2017,09,26,15,18,22.20
2017,09,26,15,19,22.20
2017,09,26,15,20,22.20
2017,09,26,15,21,22.20
2017,09,26,15,22,22.20
2017,09,26,15,23,22.20
2017,09,26,15,24,22.20
2017,09,26,15,25,22.20
2017,09,26,15,26,22.20
2017,09,26,15,27,22.20
2017,09,26,15,28,22.20
2017,09,26,15,29,22.20
2017,09,26,15,30,22.30
2017,09,26,15,31,22.30
2017,09,26,15,32,22.30
2017,09,26,15,33,22.40
2017,09,26,15,34,22.40
2017,09,26,15,35,22.30
2017,09,26,15,36,22.30
2017,09,26,15,37,22.20
2017,09,26,15,38,22.10
2017,09,26,15,39,22.00
2017,09,26,15,40,22.10
2017,09,26,15,41,22.10
2017,09,26,15,42,22.10
2017,09,26,15,43,22.20
2017,09,26,15,44,22.30
2017,09,26,15,45,22.30
2017,09,26,15,46,22.30
2017,09,26,15,47,22.30
2017,09,26,15,48,22.30
2017,09,26,15,49,22.40
2017,09,26,15,50,22.40
2017,09,26,15,51,22.50
2017,09,26,15,52,22.50
2017,09,26,15,53,22.50
2017,09,26,15,54,22.50
2017,09,26,15,55,22.50
2017,09,26,15,56,22.60
2017,09,26,15,57,22.70
2017,09,26,15,58,22.70
2017,09,26,15,59,22.80
2017,09,26,16,00,22.80
2017,09,26,16,01,22.90
2017,09,26,16,02,23.00
2017,09,26,16,03,23.00
2017,09,26,16,04,23.10
2017,09,26,16,05,23.10
2017,09,26,16,06,23.10
2017,09,26,16,07,23.10
2017,09,26,16,08,23.10
2017,09,26,16,09,23.10
2017,09,26,16,10,23.10
2017,09,26,16,11,23.10
2017,09,26,16,12,23.00
2017,09,26,16,13,22.90
2017,09,26,16,14,22.90
2017,09,26,16,15,23.00
2017,09,26,16,16,23.00
2017,09,26,16,17,23.00
2017,09,26,16,18,23.00
2017,09,26,16,19,23.00
2017,09,26,16,20,22.90
2017,09,26,16,21,23.00
2017,09,26,16,22,23.00
2017,09,26,16,23,23.10
2017,09,26,16,24,23.10
2017,09,26,16,25,23.10
2017,09,26,16,26,23.10
2017,09,26,16,27,23.10
2017,09,26,16,28,23.20
2017,09,26,16,29,23.20
2017,09,26,16,30,23.30
2017,09,26,16,31,23.30
2017,09,26,16,32,23.30
2017,09,26,16,33,23.30
2017,09,26,16,34,23.30
2017,09,26,16,35,23.30
2017,09,26,16,36,23.30
2017,09,26,16,37,23.30
2017,09,26,16,38,23.40
2017,09,26,16,39,23.40
2017,09,26,16,40,23.40
2017,09,26,16,41,23.50
2017,09,26,16,42,23.50
2017,09,26,16,43,23.50
2017,09,26,16,44,23.50
2017,09,26,16,45,23.50
2017,09,26,16,46,23.40
2017,09,26,16,47,23.40
2017,09,26,16,48,23.30
2017,09,26,16,49,23.30
2017,09,26,16,50,23.30
2017,09,26,16,51,23.30
2017,09,26,16,52,23.30
2017,09,26,16,53,23.30
2017,09,26,16,54,23.30
2017,09,26,16,55,23.10
2017,09,26,16,56,23.00
2017,09,26,16,57,22.90
2017,09,26,16,58,22.80
2017,09,26,16,59,22.80
2017,09,26,17,00,22.70
2017,09,26,17,01,22.50
2017,09,26,17,02,22.40
2017,09,26,17,03,22.40
2017,09,26,17,04,22.30
2017,09,26,17,05,22.30
2017,09,26,17,06,22.30
2017,09,26,17,07,22.40
2017,09,26,17,08,22.40
2017,09,26,17,09,22.40
2017,09,26,17,10,22.40
2017,09,26,17,11,22.40
2017,09,26,17,12,22.40
2017,09,26,17,13,22.30
2017,09,26,17,14,22.20
2017,09,26,17,15,22.10
2017,09,26,17,16,22.10
2017,09,26,17,17,22.10
2017,09,26,17,18,22.00
2017,09,26,17,19,22.00